Date String (YYYY-MM-DD hh:mm:ss) UTC,Instrument flags,Ambient pressure (hPa),Sample flow (lpm),Bypass flow (lpm),Sample temperature (°C),Ambient temperature (°C),ASC tube jacket temperature (°C),LED temperature (°C),Box temperature (°C),Sample RH (%),Span deviation,Mass concentration (μg/m³),Mass concentration (μg/m³),Mass concentration (μg/m³)
DateTimeUTC,F1_M11,P_M11,Q1_M11,Q2_M11,T1_M11,T2_M11,T3_M11,T4_M11,T5_M11,U1_M11,ZSPAN_M11,X2_M11,X0_M11,X1_M11
2021-09-11 14:00:00,,0830.6,5.00,0.00,30.0,28.1,00.0,38.9,31.5,13.3,0001.4,0010.98,0016.90,0010.12
2021-09-11 14:01:00,,0830.6,5.00,0.00,29.8,26.2,00.0,38.9,31.0,13.3,0001.7,0011.04,0017.10,0010.16
2021-09-11 14:02:00,,0830.6,5.00,0.00,29.7,26.0,00.0,38.9,30.9,13.3,0001.8,0011.08,0017.14,0010.18
2021-09-11 14:03:00,,0830.6,5.01,0.00,29.6,26.4,00.0,38.8,31.0,13.2,0001.7,0011.13,0017.52,0010.20
2021-09-11 14:04:00,,0830.6,5.00,0.00,29.5,26.8,00.0,38.8,31.1,13.3,0001.7,0011.21,0017.92,0010.24
2021-09-11 14:05:00,,0830.6,4.99,0.00,29.5,27.2,00.0,38.7,31.1,13.3,0001.6,0011.26,0017.77,0010.27
2021-09-11 14:06:00,,0830.6,5.01,0.00,29.5,27.6,00.0,38.7,31.2,13.4,0001.7,0011.32,0018.38,0010.29
2021-09-11 14:07:00,,0830.6,4.99,0.00,29.5,27.9,00.0,38.7,31.3,13.5,0001.8,0011.40,0019.01,0010.29
2021-09-11 14:08:00,,0830.6,5.00,0.00,29.6,28.1,00.0,38.7,31.3,13.4,0001.5,0011.49,0018.86,0010.31
2021-09-11 14:09:00,,0830.6,5.00,0.00,29.6,28.3,00.0,38.7,31.4,13.6,0001.3,0011.55,0019.29,0010.32
2021-09-11 14:10:00,,0830.6,5.00,0.00,29.6,28.4,00.0,38.7,31.4,13.9,0001.3,0011.65,0020.89,0010.38
2021-09-11 14:11:00,,0830.6,5.00,0.00,29.7,28.5,00.0,38.7,31.5,13.6,0001.4,0011.76,0021.60,0010.45
2021-09-11 14:12:00,,0830.6,5.00,0.00,29.7,28.6,00.0,38.7,31.5,13.6,0001.2,0011.83,0021.91,0010.48
2021-09-11 14:13:00,,0830.6,5.00,0.00,29.7,28.7,00.0,38.8,31.6,13.7,0001.2,0011.99,0022.32,0010.51
2021-09-11 14:14:00,,0830.6,5.02,0.00,29.8,28.8,00.0,38.8,31.6,13.9,0001.0,0012.02,0022.22,0010.54
2021-09-11 14:15:00,,0830.6,4.99,0.00,29.8,28.9,00.0,38.8,31.7,13.8,0001.0,0012.02,0022.11,0010.57
2021-09-11 14:16:00,,0830.6,5.01,0.00,29.9,29.0,00.0,38.8,31.7,13.8,0001.4,0012.10,0022.79,0010.62
2021-09-11 14:17:00,,0830.7,4.99,0.00,29.9,29.0,00.0,38.8,31.7,14.0,0001.7,0012.14,0022.92,0010.65
2021-09-11 14:18:00,,0830.7,5.01,0.00,29.9,29.1,00.0,38.9,31.8,14.0,0001.7,0012.16,0022.82,0010.70
2021-09-11 14:19:00,,0830.7,5.01,0.00,30.0,29.1,00.0,38.9,31.8,14.1,0001.9,0012.16,0023.74,0010.75
2021-09-11 14:20:00,,0830.7,4.99,0.00,30.0,28.6,00.0,38.9,31.7,14.1,0002.0,0012.15,0023.77,0010.79
2021-09-11 14:21:00,,0830.6,5.01,0.00,29.9,26.7,00.0,38.9,31.2,14.2,0002.2,0012.23,0023.34,0010.82
2021-09-11 14:22:00,,0830.7,5.00,0.00,29.7,26.0,00.0,38.9,31.0,14.2,0001.9,0012.32,0023.42,0010.84
2021-09-11 14:23:00,,0830.7,5.01,0.00,29.6,26.4,00.0,38.8,31.0,14.4,0002.0,0012.38,0023.51,0010.85
2021-09-11 14:24:00,,0830.7,4.99,0.00,29.6,26.8,00.0,38.8,31.1,15.1,0002.1,0012.36,0023.97,0010.87
2021-09-11 14:25:00,,0830.7,5.00,0.00,29.6,27.2,00.0,38.8,31.1,15.5,0002.2,0012.40,0024.46,0010.89
2021-09-11 14:26:00,,0830.7,5.00,0.00,29.6,27.6,00.0,38.7,31.2,15.6,0002.2,0012.45,0024.50,0010.90
2021-09-11 14:27:00,,0830.6,5.00,0.00,29.6,27.9,00.0,38.7,31.3,15.6,0002.1,0012.40,0024.42,0010.88
2021-09-11 14:28:00,,0830.6,4.99,0.00,29.6,28.1,00.0,38.7,31.4,15.7,0001.8,0012.39,0024.53,0010.87
2021-09-11 14:29:00,,0830.6,5.00,0.00,29.6,28.3,00.0,38.7,31.4,15.5,0001.8,0012.47,0025.26,0010.87
2021-09-11 14:30:00,,0830.6,5.00,0.00,29.7,28.5,00.0,38.7,31.4,15.5,0001.7,0012.50,0024.74,0010.85
2021-09-11 14:31:00,,0830.6,5.00,0.00,29.7,28.6,00.0,38.7,31.5,15.3,0001.7,0012.49,0024.06,0010.80
2021-09-11 14:32:00,,0830.6,5.00,0.00,29.7,28.7,00.0,38.8,31.6,15.4,0001.7,0012.52,0024.27,0010.76
2021-09-11 14:33:00,,0830.6,5.00,0.00,29.8,28.8,00.0,38.8,31.6,15.4,0001.8,0012.46,0023.85,0010.69
2021-09-11 14:34:00,,0830.6,5.00,0.00,29.8,28.9,00.0,38.8,31.7,15.5,0001.7,0012.48,0024.71,0010.66
2021-09-11 14:35:00,,0830.6,4.99,0.00,29.9,29.0,00.0,38.8,31.7,15.7,0002.1,0012.48,0024.41,0010.63
2021-09-11 14:36:00,,0830.7,4.99,0.00,29.9,29.0,00.0,38.8,31.7,15.4,0001.9,0012.50,0024.56,0010.61
2021-09-11 14:37:00,,0830.6,5.01,0.00,29.9,29.1,00.0,38.9,31.8,15.4,0001.9,0012.55,0024.59,0010.58
2021-09-11 14:38:00,,0830.6,4.99,0.00,30.0,29.1,00.0,38.9,31.8,15.3,0001.8,0012.66,0024.78,0010.56
2021-09-11 14:39:00,,0830.6,5.01,0.00,30.0,28.1,00.0,38.9,31.6,15.5,0001.5,0012.74,0025.09,0010.54
2021-09-11 14:40:00,,0830.5,5.00,0.00,29.8,26.5,00.0,38.9,31.1,15.7,0001.6,0012.74,0024.73,0010.50
2021-09-11 14:41:00,,0830.6,5.00,0.00,29.7,26.5,00.0,38.9,31.1,15.8,0001.6,0012.74,0024.72,0010.43
2021-09-11 14:42:00,,0830.6,5.00,0.00,29.6,26.9,00.0,38.8,31.2,15.7,0001.5,0012.80,0025.05,0010.40
2021-09-11 14:43:00,,0830.6,4.99,0.00,29.6,27.3,00.0,38.8,31.2,15.7,0001.4,0012.72,0025.81,0010.36
2021-09-11 14:44:00,,0830.6,5.01,0.00,29.6,27.6,00.0,38.8,31.3,15.8,0001.1,0012.73,0027.73,0010.34
2021-09-11 14:45:00,,0830.6,4.99,0.00,29.6,27.9,00.0,38.8,31.4,15.9,0001.0,0012.67,0028.28,0010.33
2021-09-11 14:46:00,,0830.6,4.99,0.00,29.7,28.2,00.0,38.8,31.4,16.2,0000.7,0012.64,0028.66,0010.28
2021-09-11 14:47:00,,0830.6,5.01,0.00,29.7,28.4,00.0,38.8,31.5,16.1,0000.9,0012.65,0028.55,0010.22
2021-09-11 14:48:00,,0830.6,5.00,0.00,29.7,28.6,00.0,38.8,31.5,16.3,0001.0,0012.67,0029.11,0010.16
2021-09-11 14:49:00,,0830.6,4.99,0.00,29.8,28.7,00.0,38.8,31.6,16.0,0001.2,0012.59,0029.38,0010.13
2021-09-11 14:50:00,,0830.5,5.00,0.00,29.8,28.8,00.0,38.8,31.7,16.0,0001.1,0012.54,0029.24,0010.09
2021-09-11 14:51:00,,0830.5,5.01,0.00,29.9,28.9,00.0,38.8,31.7,15.2,0001.1,0012.45,0029.54,0010.08
2021-09-11 14:52:00,,0830.6,5.00,0.00,29.9,29.0,00.0,38.9,31.7,15.5,0001.1,0012.42,0029.71,0010.07
2021-09-11 14:53:00,,0830.6,5.00,0.00,29.9,27.9,00.0,38.9,31.5,15.7,0001.1,0012.42,0029.65,0010.07
2021-09-11 14:54:00,,0830.6,5.00,0.00,29.7,26.5,00.0,38.8,31.1,16.0,0001.1,0012.43,0029.56,0010.07
2021-09-11 14:55:00,,0830.6,5.01,0.00,29.7,26.6,00.0,38.8,31.1,15.8,0001.3,0012.35,0028.75,0010.04
2021-09-11 14:56:00,,0830.5,4.99,0.00,29.6,27.1,00.0,38.8,31.2,15.4,0001.4,0012.30,0028.67,0009.99
2021-09-11 14:57:00,,0830.5,5.01,0.00,29.6,27.4,00.0,38.8,31.2,14.9,0001.5,0012.25,0028.75,0009.98
2021-09-11 14:58:00,,0830.5,4.99,0.00,29.6,27.8,00.0,38.7,31.3,14.6,0001.6,0012.16,0029.92,0009.98
2021-09-11 14:59:00,,0830.5,5.01,0.00,29.7,28.1,00.0,38.7,31.4,15.0,0001.6,0011.99,0029.46,0009.97
